Location: Augustów
(53.8466°N, 22.9876°E)
Time: 10:49:00
(UTC+02:00)

ISS - Visible Passes

Search period start: 22 September 2018 00:00
Search period end: 02 October 2018 00:00
Orbit: 403 x 408 km, 51.6° (Epoch: 22 September)

Date Brightness Start Highest point End Pass type
(mag) Time Alt. Az. Time Alt. Az. Time Alt. Az.
23 Sep -1.7 19:38:04 10° S 19:39:35 13° SE 19:39:35 13° SE visible
24 Sep -2.3 20:20:54 10° SW 20:22:49 24° S 20:22:49 24° S visible
25 Sep -2.3 19:29:27 10° SSW 19:32:05 22° SSE 19:33:12 18° ESE visible
25 Sep -1.4 21:04:57 10° WSW 21:05:53 17° WSW 21:05:53 17° WSW visible
26 Sep -3.3 20:13:09 10° WSW 20:16:08 42° S 20:16:08 42° S visible
27 Sep -2.9 19:21:27 10° SW 19:24:28 33° SSE 19:26:17 19° ESE visible
27 Sep -1.8 20:57:26 10° WSW 20:58:58 24° WSW 20:58:58 24° WSW visible
28 Sep -3.7 20:05:32 10° WSW 20:08:47 54° S 20:09:02 53° SSE visible
29 Sep -3.3 19:13:41 10° WSW 19:16:53 46° SSE 19:19:03 18° E visible
29 Sep -2.0 20:49:55 10° W 20:51:43 28° WSW 20:51:43 28° WSW visible
30 Sep -3.7 19:57:59 10° W 20:01:14 59° S 20:01:42 52° SE visible
01 Oct -3.5 19:06:02 10° WSW 19:09:17 57° S 19:11:39 17° E visible
01 Oct -2.1 20:42:24 10° W 20:44:18 29° WSW 20:44:18 29° WSW visible
